View from above orbital plane
|
View from above satellite
|
Ground track
|
The orbit data is extracted from the following two-line orbital elements,
1 25544U 98067A 21020.53488036 .00016717 00000-0 10270-3 0 9054
2 25544 51.6423 353.0312 0000493 320.8755 39.2360 15.49309423 25703
Epoch (UTC): | 20 January 2021 12:50:13 |
Eccentricity: | 0.0000493 |
inclination: | 51.6423° |
perigee height: | 418 km |
apogee height: | 419 km |
right ascension of ascending node: | 353.0312° |
argument of perigee: | 320.8755° |
revolutions per day: | 15.49309423 |
mean anomaly at epoch: | 39.2360° |
orbit number at epoch: | 2570 |
The dashed part of the orbit path shows where the satellite is in the earth's shadow,
|
|